OneWeb SL0063

operational
NORAD ID: 45448 Int'l Des: 2020-020 Owner: ONEWEB Country: UK Constellation: oneweb
LEOCIRCULARPOLARONEWEB_TYPE

About OneWeb SL0063

Description loading...

Live Position

Loading 3D Globe...

Upcoming Passes

Altitude History

Altitude vs Time

uPlot chart will show altitude changes over time

Two-Line Element Set

1 45448U 20020AA 26061.43463777 -.00000479 00000-0 -13861-2 0 9998
2 45448 87.8856 42.2878 0001885 77.2231 282.9108 13.11416906288701
Epoch: Mar 2, 2026 • Age: 34 hours

Current Status

Altitude 1232.4 km
Velocity 7.24 km/s
Sub-Earth Point -37.30°S, 88.59°E
Launch Date Mar 21, 2020
Age 5.9 years
Type internet

Technical Details

Classification Payload
Mass 148.00 kg
Dry Mass 140.00 kg
Total Mass 148.00 kg
Length 1.30 m
Diameter 1.00 m
Span 5.00 m
Shape Trapezoid+2 pan
Manufacturer ONEWUS
Bus Type ARROW
Phase Status In Orbit
Owner/State ONEWEB/UK

Large Constellations

Loading constellations...